Weather History for KMRJ - March, 2014

Change the Weather History Date:

Friday, March 28, 2014

  Actual Average (KLNR) Record (KLNR)
Temperature  
Mean Temperature 36 °F -  
Max Temperature 41 °F 49 °F 68 °F (2005)
Min Temperature 32 °F 31 °F 14 °F (2015)
Degree Days  
Heating Degree Days 28    
Moisture  
Dew Point 31 °F    
Average Humidity 83    
Maximum Humidity 93    
Minimum Humidity 70    
Precipitation  
Precipitation 0.00 in - - ()
Sea Level Pressure  
Sea Level Pressure 29.92 in    
Wind  
Wind Speed 11 mph (NW)    
Max Wind Speed 21 mph    
Max Gust Speed 29 mph    
Visibility 10 miles    
Events Rain    
Averages and records for this station are not official NWS values.
T = Trace of Precipitation, MM = Missing Value Source: NWS Daily Summary

Daily Weather History Graph

Daily Weather History Graph

Search for Another Location

Airport or City:

Trip Planner

Search our weather history database for the weather conditions in past years. The results will help you decide how hot, cold, wet, or windy it might be!

Date:

Astronomy

Mar. 28, 2014 Rise Set
Actual Time 6:50 AM CDT 7:22 PM CDT
Civil Twilight 6:21 AM CDT 7:51 PM CDT
Nautical Twilight 5:48 AM CDT 8:24 PM CDT
Astronomical Twilight 5:13 AM CDT 8:59 PM CDT
Moon 5:24 AM CDT (3/28) 5:16 PM CDT (3/28)
Length of Visible Light 13h 29m
Length of Day
12h 32m
Waning Crescent, 6% of the Moon is Illuminated
Mar 28
Waning Crescent
Mar 30
New
Apr 7
First Quarter
Apr 15
Full
Apr 22
Last Quarter

Hourly Weather History & Observations

Time (CDT) Temp. Windchill Dew Point Humidity Pressure Visibility Wind Dir Wind Speed Gust Speed Precip Events Conditions
12:15 AM 41.0 °F 33.1 °F 39.2 °F 93% 29.41 in 7.0 mi North 15.0 mph 18.4 mph N/A Rain Light Rain
12:35 AM 41.0 °F 33.1 °F 37.4 °F 87% 29.42 in 10.0 mi North 15.0 mph 19.6 mph N/A Rain Light Rain
12:55 AM 41.0 °F 32.8 °F 37.4 °F 87% 29.45 in 10.0 mi NNW 16.1 mph 20.7 mph N/A Rain Light Rain
1:15 AM 39.2 °F 30.5 °F 37.4 °F 93% 29.46 in 10.0 mi NNW 16.1 mph 21.9 mph N/A Rain Light Rain
1:35 AM 37.4 °F 27.8 °F 35.6 °F 93% 29.48 in 10.0 mi NNW 17.3 mph 24.2 mph N/A Rain Light Rain
1:55 AM 37.4 °F 27.2 °F 35.6 °F 93% 29.51 in 10.0 mi NNW 19.6 mph 28.8 mph N/A   Overcast
2:15 AM 37.4 °F 27.2 °F 35.6 °F 93% 29.53 in 10.0 mi NNW 19.6 mph 24.2 mph N/A   Overcast
2:35 AM 37.4 °F 26.9 °F 35.6 °F 93% 29.55 in 10.0 mi NNW 20.7 mph 26.5 mph N/A   Overcast
2:55 AM 37.4 °F 27.8 °F 33.8 °F 87% 29.57 in 10.0 mi NNW 17.3 mph 27.6 mph N/A   Overcast
3:15 AM 35.6 °F 25.5 °F 33.8 °F 93% 29.59 in 10.0 mi NNW 17.3 mph 25.3 mph N/A   Overcast
3:35 AM 35.6 °F 24.8 °F 33.8 °F 93% 29.60 in 10.0 mi NNW 19.6 mph 24.2 mph N/A   Overcast
3:55 AM 35.6 °F 26.2 °F 33.8 °F 93% 29.63 in 10.0 mi NW 15.0 mph - N/A   Overcast
4:15 AM 35.6 °F 27.5 °F 33.8 °F 93% 29.65 in 10.0 mi NW 11.5 mph - N/A   Overcast
4:35 AM 35.6 °F 27.5 °F 33.8 °F 93% 29.67 in 10.0 mi NW 11.5 mph - N/A   Overcast
4:55 AM 35.6 °F 25.9 °F 32.0 °F 87% 29.70 in 10.0 mi NW 16.1 mph 24.2 mph N/A   Overcast
5:15 AM 35.6 °F 25.2 °F 32.0 °F 87% 29.73 in 10.0 mi NW 18.4 mph 26.5 mph N/A   Overcast
5:35 AM 33.8 °F 23.5 °F 32.0 °F 93% 29.75 in 10.0 mi NW 16.1 mph 23.0 mph N/A   Overcast
5:55 AM 33.8 °F 24.8 °F 32.0 °F 93% 29.78 in 10.0 mi NW 12.7 mph 19.6 mph N/A   Overcast
6:15 AM 33.8 °F 24.3 °F 32.0 °F 93% 29.79 in 10.0 mi NNW 13.8 mph 23.0 mph N/A   Overcast
6:35 AM 33.8 °F 22.8 °F 30.2 °F 87% 29.80 in 10.0 mi NW 18.4 mph 27.6 mph N/A   Overcast
6:55 AM 33.8 °F 22.8 °F 30.2 °F 87% 29.82 in 10.0 mi NW 18.4 mph 23.0 mph N/A   Overcast
7:15 AM 33.8 °F 22.8 °F 30.2 °F 87% 29.84 in 10.0 mi NNW 18.4 mph 21.9 mph N/A   Overcast
7:35 AM 33.8 °F 22.8 °F 30.2 °F 87% 29.86 in 10.0 mi NNW 18.4 mph 23.0 mph N/A   Overcast
7:55 AM 32.0 °F 21.2 °F 28.4 °F 87% 29.87 in 10.0 mi NNW 16.1 mph 24.2 mph N/A   Overcast
8:15 AM 32.0 °F 24.2 °F 28.4 °F 87% 29.89 in 10.0 mi NNW 9.2 mph 16.1 mph N/A   Overcast
8:35 AM 32.0 °F 21.2 °F 28.4 °F 87% 29.90 in 10.0 mi NNW 16.1 mph 21.9 mph N/A   Overcast
8:55 AM 32.0 °F 24.8 °F 28.4 °F 87% 29.92 in 10.0 mi NNW 8.1 mph - N/A   Overcast
9:10 AM 32.0 °F 24.2 °F 28.4 °F 87% 29.93 in 10.0 mi NNW 9.2 mph - N/A   Overcast
9:35 AM 32.0 °F 25.6 °F 28.4 °F 87% 29.95 in 10.0 mi NW 6.9 mph - N/A   Overcast
9:55 AM 32.0 °F 24.2 °F 28.4 °F 87% 29.96 in 10.0 mi NNW 9.2 mph - N/A   Overcast
10:15 AM 33.8 °F 25.8 °F 28.4 °F 81% 29.96 in 10.0 mi North 10.4 mph - N/A   Overcast
10:35 AM 33.8 °F 27.7 °F 28.4 °F 81% 29.97 in 10.0 mi North 6.9 mph - N/A   Overcast
10:55 AM 33.8 °F 25.8 °F 28.4 °F 81% 29.99 in 10.0 mi NNW 10.4 mph - N/A   Overcast
11:15 AM 35.6 °F 28.0 °F 28.4 °F 75% 30.00 in 10.0 mi North 10.4 mph - N/A   Overcast
11:35 AM 35.6 °F 28.0 °F 28.4 °F 75% 29.99 in 10.0 mi North 10.4 mph - N/A   Overcast
11:55 AM 35.6 °F 30.7 °F 28.4 °F 75% 29.99 in 10.0 mi North 5.8 mph - N/A   Overcast
12:15 PM 35.6 °F 31.7 °F 28.4 °F 75% 30.00 in 10.0 mi NNW 4.6 mph - N/A   Overcast
12:35 PM 35.6 °F 32.8 °F 28.4 °F 75% 30.01 in 10.0 mi North 3.5 mph - N/A   Overcast
12:55 PM 35.6 °F - 28.4 °F 75% 30.03 in 10.0 mi Calm Calm - N/A   Overcast
1:15 PM 35.6 °F 31.7 °F 28.4 °F 75% 30.04 in 10.0 mi NW 4.6 mph - N/A   Overcast
1:35 PM 35.6 °F 31.7 °F 28.4 °F 75% 30.05 in 10.0 mi NW 4.6 mph - N/A   Overcast
1:55 PM 35.6 °F 29.2 °F 28.4 °F 75% 30.06 in 10.0 mi NW 8.1 mph - N/A   Overcast
2:15 PM 35.6 °F 29.2 °F 30.2 °F 81% 30.07 in 10.0 mi West 8.1 mph - N/A   Overcast
2:35 PM 37.4 °F 32.8 °F 30.2 °F 75% 30.07 in 10.0 mi West 5.8 mph - N/A   Overcast
2:55 PM 37.4 °F 33.8 °F 30.2 °F 75% 30.07 in 10.0 mi West 4.6 mph - N/A   Overcast
3:15 PM 37.4 °F - 30.2 °F 75% 30.06 in 10.0 mi Calm Calm - N/A   Overcast
3:35 PM 37.4 °F - 30.2 °F 75% 30.07 in 10.0 mi Calm Calm - N/A   Overcast
3:55 PM 39.2 °F 37.0 °F 30.2 °F 70% 30.08 in 10.0 mi South 3.5 mph - N/A   Overcast
4:15 PM 39.2 °F - 30.2 °F 70% 30.09 in 10.0 mi Calm Calm - N/A   Overcast
4:35 PM 37.4 °F - 28.4 °F 70% 30.09 in 10.0 mi Calm Calm - N/A   Overcast
4:55 PM 39.2 °F - 30.2 °F 70% 30.09 in 10.0 mi Calm Calm - N/A   Mostly Cloudy
5:15 PM 39.2 °F - 30.2 °F 70% 30.09 in 10.0 mi Calm Calm - N/A   Mostly Cloudy
5:35 PM 39.2 °F 37.0 °F 30.2 °F 70% 30.10 in 10.0 mi SSE 3.5 mph - N/A   Mostly Cloudy
5:55 PM 37.4 °F 33.8 °F 30.2 °F 75% 30.11 in 10.0 mi SSW 4.6 mph - N/A   Mostly Cloudy
6:15 PM 37.4 °F 34.9 °F 30.2 °F 75% 30.11 in 10.0 mi South 3.5 mph - N/A   Overcast
6:35 PM 37.4 °F 33.8 °F 30.2 °F 75% 30.12 in 10.0 mi South 4.6 mph - N/A   Mostly Cloudy
6:55 PM 35.6 °F 31.7 °F 30.2 °F 81% 30.13 in 10.0 mi South 4.6 mph - N/A   Scattered Clouds
7:15 PM 35.6 °F 32.8 °F 30.2 °F 81% 30.13 in 10.0 mi South 3.5 mph - N/A   Mostly Cloudy
7:35 PM 35.6 °F 31.7 °F 30.2 °F 81% 30.14 in 10.0 mi South 4.6 mph - N/A   Overcast
7:55 PM 35.6 °F 31.7 °F 30.2 °F 81% 30.14 in 10.0 mi SSE 4.6 mph - N/A   Overcast
8:15 PM 35.6 °F - 30.2 °F 81% 30.14 in 10.0 mi Calm Calm - N/A   Scattered Clouds
8:35 PM 35.6 °F - 30.2 °F 81% 30.14 in 10.0 mi Calm Calm - N/A   Scattered Clouds
8:55 PM 35.6 °F - 30.2 °F 81% 30.14 in 10.0 mi Calm Calm - N/A   Scattered Clouds
9:15 PM 35.6 °F - 30.2 °F 81% 30.13 in 10.0 mi Calm Calm - N/A   Scattered Clouds
9:35 PM 33.8 °F - 30.2 °F 87% 30.13 in 10.0 mi Calm Calm - N/A   Mostly Cloudy
9:55 PM 35.6 °F - 30.2 °F 81% 30.13 in 10.0 mi Calm Calm - N/A   Overcast
10:15 PM 33.8 °F - 30.2 °F 87% 30.12 in 10.0 mi Calm Calm - N/A   Scattered Clouds
10:35 PM 33.8 °F - 30.2 °F 87% 30.13 in 10.0 mi Calm Calm - N/A   Scattered Clouds
10:55 PM 32.0 °F - 30.2 °F 93% 30.13 in 7.0 mi Calm Calm - N/A   Scattered Clouds
11:15 PM 33.8 °F - 30.2 °F 87% 30.13 in 10.0 mi Calm Calm - N/A   Scattered Clouds
11:35 PM 33.8 °F - 30.2 °F 87% 30.14 in 10.0 mi Calm Calm - N/A   Clear
11:55 PM 33.8 °F - 30.2 °F 87% 30.15 in 10.0 mi Calm Calm - N/A   Clear